Weather History for EGKA - October, 2012

Change the Weather History Date:

Monday, October 22, 2012

  Actual Average Record
Temperature  
Mean Temperature 58 °F -  
Max Temperature 61 °F 52 °F 64 °F (2013)
Min Temperature 54 °F 44 °F 33 °F (2008)
Degree Days  
Heating Degree Days 8    
Growing Degree Days 8 (Base 50)    
Moisture  
Dew Point 57 °F    
Average Humidity 94    
Maximum Humidity 100    
Minimum Humidity 88    
Precipitation  
Precipitation 0.00 in - - ()
Sea Level Pressure  
Sea Level Pressure 30.09 in    
Wind  
Wind Speed 5 mph ()    
Max Wind Speed 10 mph    
Max Gust Speed -    
Visibility 1.0 miles    
Events Fog    
Averages and records for this station are not official NWS values.
T = Trace of Precipitation, MM = Missing Value Source: Averaged Metar Reports

Daily Weather History Graph

Daily Weather History Graph

Search for Another Location

Airport or City:

Trip Planner

Search our weather history database for the weather conditions in past years. The results will help you decide how hot, cold, wet, or windy it might be!

Date:

Astronomy

Oct. 22, 2012 Rise Set
Actual Time 7:36 AM BST 5:53 PM BST
Civil Twilight 7:02 AM BST 6:27 PM BST
Nautical Twilight 6:24 AM BST 7:05 PM BST
Astronomical Twilight 5:46 AM BST 7:43 PM BST
Moon 2:34 PM BST (10/22) No Moon Set
Length of Visible Light 11h 24m
Length of Day
10h 17m
First Quarter, 53% of the Moon is Illuminated
Oct 22
First Quarter
Oct 29
Full
Nov 7
Last Quarter
Nov 13
New
Nov 20
First Quarter

Hourly Weather History & Observations

Time (BST) Temp. Dew Point Humidity Pressure Visibility Wind Dir Wind Speed Gust Speed Precip Events Conditions
12:50 AM 56 °F 54 °F 92% 30.01 in - NNE 10.4 mph - -  
3:50 AM 56 °F 55 °F 95% 30.03 in - NNE 5.8 mph - -  
6:50 AM 56 °F 55 °F 95% 30.04 in - North 10.4 mph - -  
7:50 AM 55.4 °F 55.4 °F 100% 30.04 in 0.6 mi NNE 6.9 mph - N/A Fog Fog
8:20 AM 57.2 °F 55.4 °F 94% 30.06 in 0.7 mi North 5.8 mph - N/A   Overcast
8:50 AM 57.2 °F 55.4 °F 94% 30.06 in 0.7 mi NNE 8.1 mph - N/A   Overcast
9:20 AM 57.2 °F 55.4 °F 94% 30.06 in 0.8 mi NNE 6.9 mph - N/A   Overcast
9:50 AM 58 °F 57 °F 95% 30.09 in - NNE 5.8 mph - -  
9:50 AM 57.2 °F 57.2 °F 100% 30.06 in 0.8 mi NNE 6.9 mph - N/A   Overcast
10:20 AM 59.0 °F 57.2 °F 94% 30.09 in 0.7 mi NE 3.5 mph - N/A   Overcast
11:20 AM 59.0 °F 57.2 °F 94% 30.09 in 0.9 mi NE 5.8 mph - N/A   Overcast
11:50 AM 59.0 °F 59.0 °F 100% 30.09 in 1.6 mi East 4.6 mph - N/A   Overcast
12:50 PM 60 °F 58 °F 91% 30.11 in - SE 2.3 mph - -  
12:50 PM 59.0 °F 57.2 °F 94% 30.09 in 1.2 mi SE 2.3 mph - N/A   Overcast
1:20 PM 60.8 °F 59.0 °F 94% 30.09 in 1.7 mi SE 3.5 mph - N/A   Overcast
1:50 PM 60.8 °F 59.0 °F 94% 30.09 in 1.7 mi ENE 4.6 mph - N/A   Haze
2:20 PM 60.8 °F 59.0 °F 94% 30.09 in 1.6 mi South 3.5 mph - N/A   Haze
2:50 PM 60.8 °F 59.0 °F 94% 30.09 in 1.6 mi South 2.3 mph - N/A   Haze
3:20 PM 60.8 °F 59.0 °F 94% 30.12 in 1.6 mi Calm Calm - N/A   Haze
3:50 PM 61 °F 59 °F 89% 30.12 in - SE 2.3 mph - -  
4:20 PM 60.8 °F 57.2 °F 88% 30.12 in 0.9 mi South 3.5 mph - N/A   Haze
4:50 PM 59.0 °F 57.2 °F 94% 30.12 in 0.7 mi South 3.5 mph - N/A   Haze
5:20 PM 59.0 °F 57.2 °F 94% 30.12 in 0.7 mi Calm Calm - N/A   Haze
5:50 PM 59.0 °F 57.2 °F 94% 30.12 in 0.7 mi Calm Calm - N/A   Haze
6:20 PM 59.0 °F 57.2 °F 94% 30.12 in 0.7 mi Calm Calm - N/A   Overcast
6:50 PM 60 °F 59 °F 97% 30.16 in - NNE 4.6 mph - -  
9:50 PM 58 °F 57 °F 96% 30.19 in - North 6.9 mph - -